一网星座-0178星 (ONEWEB-0178 )

导读 | 豆包AI

ONEWEB-0178是英国OneWeb卫星互联网项目的组网卫星,于2021年3月25日发射升空,是OneWeb打造全球低轨卫星互联网络的组成单元。 OneWeb计划部署近600余颗近地轨道卫星,构建覆盖全球的宽带互联网服务,该项目依托英国企业推进,填补欧洲卫星互联网布局,不过整体项目在规模、成本和技术层面仍和美国星链存在差距,ONEWEB-0178在轨承担网络传输节点功能,助力全球偏远区域通信覆盖。

基本信息
目录编号:
48075
目录名称:
ONEWEB-0178
国际标识:
2021-025AK
轨道中心:
EARTH
卫星名称:
一网星座-0178星
卫星全名:
一网星座-0178星 (ONEWEB-0178 )
卫星状态:
在轨 (已飞行1815 天)
发射日期:
2021-03-25 UTC
国别 :
英国 (GB)
星等 :
--
轨道信息
数据来源 国际轨道数据
星历时间: 2026-03-14T07:17:56+0800
9小时前
查看轨道信息
半长轴: 7587.905km
偏心率: 0.0002008
轨道倾角: 87.902°
近地点辐角 82.145°
升交点赤经 339.189°
平近点角 277.990°
近地点: 1208.244km
远地点: 1211.292km
周期: 109.633分钟
每日圈数: 13.134695
详细信息
平衡模式:
三轴稳定
覆盖范围:
全球
运营商:
一网卫星公司
运营商所在国:
英国
制造商(研发单位):
一网卫星公司
制造商所在国:
英国
使用方式:
暂无
卫星简介
OneWeb卫星网络由648颗重约125公斤的微型卫星组成,运行在1200公里的轨道上。 每颗卫星都能够提供至少每秒8千兆位的吞吐量,以使用其高吞吐量的Ku频段有效载荷为家庭和移动平台提供互联网接入。该卫星仍在工作。
2D轨道图
3D轨道图
轨道高度分析图
轨道倾角分析图
轨道综合分析图
查看轨道综合分析图